Volver al catálogo

STARLINK-30437

ActivoComunicacionesVLEO
NORAD 58036·PAYLOAD·🇺🇸 United States

Lanzado Oct 9, 2023 desde Vandenberg Space Force Base

Loading…

Próximos Pases (próximas 24 horas)

TLE

ActualizadoSource: CelesTrak SupGP

Época: Sep 15, 2026, 02:40 UTC

1 58036C 23156J   26258.11159722 -.00002676  00000+0 -86027-4 0  2587
2 58036  53.1574 277.9273 0001343  81.1178 353.8716 15.31710692    12

Sigue STARLINK-30437 en tiempo real con AllMySat

Download on the App Store